Time,TemperatureF,DewpointF,PressureIn,WindDirection,WindDirectionDegrees,WindSpeedMPH,WindSpeedGustMPH,Humidity,HourlyPrecipIn,Conditions,Clouds,dailyrainin,SoftwareType,DateUTC
2013-09-23 00:14:00,42.0,40.0,29.94,WSW,246,3.0,-999.0,94,-99.99,,,-99.99,,2013-09-23 04:14:00,
2013-09-23 00:24:00,42.0,40.0,29.94,West,259,2.0,-999.0,94,-99.99,,,-99.99,,2013-09-23 04:24:00,
2013-09-23 00:43:00,42.0,40.0,29.94,NNW,328,3.0,-999.0,94,-99.99,,,-99.99,,2013-09-23 04:43:00,
2013-09-23 00:54:00,42.0,40.0,29.94,NW,317,3.0,-999.0,94,-99.99,,,-99.99,,2013-09-23 04:54:00,
2013-09-23 01:12:00,42.0,41.0,29.94,West,259,2.0,-999.0,95,-99.99,,,-99.99,,2013-09-23 05:12:00,
2013-09-23 01:23:00,41.0,39.0,29.94,West,262,2.0,-999.0,94,-99.99,,,-99.99,,2013-09-23 05:23:00,
2013-09-23 01:43:00,41.0,39.0,29.94,West,263,1.0,-999.0,94,-99.99,,,-99.99,,2013-09-23 05:43:00,
2013-09-23 01:53:00,41.0,40.0,29.94,WSW,242,3.0,-999.0,95,-99.99,,,-99.99,,2013-09-23 05:53:00,
2013-09-23 02:13:00,41.0,40.0,29.94,WSW,242,5.0,-999.0,95,-99.99,,,-99.99,,2013-09-23 06:13:00,
2013-09-23 02:22:00,41.0,39.0,29.95,WSW,249,5.0,-999.0,94,-99.99,,,-99.99,,2013-09-23 06:22:00,
2013-09-23 02:52:00,40.0,39.0,29.96,WSW,250,5.0,-999.0,95,-99.99,,,-99.99,,2013-09-23 06:52:00,
2013-09-23 03:12:00,39.0,38.0,29.96,WSW,250,5.0,-999.0,95,-99.99,,,-99.99,,2013-09-23 07:12:00,
2013-09-23 03:22:00,39.0,38.0,29.95,WSW,252,5.0,-999.0,95,-99.99,,,-99.99,,2013-09-23 07:22:00,
2013-09-23 03:52:00,39.0,38.0,29.95,WSW,237,6.0,-999.0,95,-99.99,,,-99.99,,2013-09-23 07:52:00,
2013-09-23 04:11:00,39.0,38.0,29.96,WSW,248,6.0,-999.0,95,-99.99,,,-99.99,,2013-09-23 08:11:00,
2013-09-23 04:23:00,40.0,39.0,29.96,West,265,8.0,-999.0,95,-99.99,,,-99.99,,2013-09-23 08:23:00,
2013-09-23 04:42:00,40.0,39.0,29.96,WSW,257,6.0,-999.0,95,-99.99,,,-99.99,,2013-09-23 08:42:00,
2013-09-23 04:52:00,40.0,38.0,29.96,West,276,7.0,-999.0,94,-99.99,,,-99.99,,2013-09-23 08:52:00,
2013-09-23 05:11:00,40.0,39.0,29.96,WSW,244,8.0,-999.0,95,-99.99,,,-99.99,,2013-09-23 09:11:00,
2013-09-23 05:22:00,40.0,38.0,29.96,West,259,7.0,-999.0,94,-99.99,,,-99.99,,2013-09-23 09:22:00,
2013-09-23 05:53:00,40.0,38.0,29.97,West,271,8.0,-999.0,94,-99.99,,,-99.99,,2013-09-23 09:53:00,
2013-09-23 06:13:00,40.0,38.0,29.97,WNW,284,8.0,-999.0,94,-99.99,,,-99.99,,2013-09-23 10:13:00,
2013-09-23 06:23:00,40.0,38.0,29.98,West,273,8.0,-999.0,94,-99.99,,,-99.99,,2013-09-23 10:23:00,
2013-09-23 06:42:00,40.0,38.0,29.98,WNW,300,7.0,-999.0,94,-99.99,,,-99.99,,2013-09-23 10:42:00,
2013-09-23 06:53:00,40.0,38.0,29.99,WSW,250,7.0,-999.0,92,-99.99,,,-99.99,,2013-09-23 10:53:00,
2013-09-23 07:12:00,40.0,38.0,29.99,West,275,6.0,-999.0,94,-99.99,,,-99.99,,2013-09-23 11:12:00,
2013-09-23 07:22:00,39.0,37.0,29.99,West,275,0.0,-999.0,93,-99.99,,,-99.99,,2013-09-23 11:22:00,
2013-09-23 07:52:00,40.0,37.0,30.01,WNW,290,2.0,-999.0,88,-99.99,,,-99.99,,2013-09-23 11:52:00,
2013-09-23 08:11:00,41.0,37.0,30.01,WNW,292,1.0,-999.0,84,-99.99,,,-99.99,,2013-09-23 12:11:00,
2013-09-23 08:22:00,40.0,38.0,30.01,SW,230,4.0,-999.0,91,-99.99,,,-99.99,,2013-09-23 12:22:00,
2013-09-23 08:52:00,40.0,39.0,30.02,West,259,5.0,-999.0,95,-99.99,,,-99.99,,2013-09-23 12:52:00,
2013-09-23 09:11:00,41.0,40.0,30.02,West,277,3.0,-999.0,95,-99.99,,,-99.99,,2013-09-23 13:11:00,
2013-09-23 09:22:00,41.0,40.0,30.03,West,271,3.0,-999.0,95,-99.99,,,-99.99,,2013-09-23 13:22:00,
2013-09-23 09:42:00,42.0,40.0,30.03,WSW,252,2.0,-999.0,94,-99.99,,,-99.99,,2013-09-23 13:42:00,
2013-09-23 09:52:00,44.0,41.0,30.03,WSW,250,3.0,-999.0,88,-99.99,,,-99.99,,2013-09-23 13:52:00,
2013-09-23 10:12:00,46.0,42.0,30.03,WSW,238,4.0,-999.0,85,-99.99,,,-99.99,,2013-09-23 14:12:00,
2013-09-23 10:22:00,47.0,42.0,30.04,WSW,237,3.0,-999.0,83,-99.99,,,-99.99,,2013-09-23 14:22:00,
2013-09-23 10:42:00,48.0,43.0,30.04,SW,232,4.0,-999.0,84,-99.99,,,-99.99,,2013-09-23 14:42:00,
2013-09-23 10:52:00,48.0,43.0,30.04,SW,234,4.0,-999.0,82,-99.99,,,-99.99,,2013-09-23 14:52:00,
2013-09-23 11:12:00,49.0,42.0,30.05,SW,220,5.0,-999.0,77,-99.99,,,-99.99,,2013-09-23 15:12:00,
2013-09-23 11:22:00,50.0,42.0,30.05,SW,220,6.0,-999.0,75,-99.99,,,-99.99,,2013-09-23 15:22:00,
2013-09-23 11:43:00,52.0,44.0,30.05,SW,234,6.0,-999.0,74,-99.99,,,-99.99,,2013-09-23 15:43:00,
2013-09-23 11:54:00,51.0,44.0,30.06,WSW,255,7.0,-999.0,77,-99.99,,,-99.99,,2013-09-23 15:54:00,
2013-09-23 12:12:00,51.0,43.0,30.05,SW,229,7.0,-999.0,75,-99.99,,,-99.99,,2013-09-23 16:12:00,
2013-09-23 12:24:00,52.0,43.0,30.05,WSW,242,8.0,-999.0,70,-99.99,,,-99.99,,2013-09-23 16:24:00,
2013-09-23 12:53:00,54.0,43.0,30.06,WNW,288,8.0,-999.0,66,-99.99,,,-99.99,,2013-09-23 16:53:00,
2013-09-23 13:12:00,54.0,45.0,30.06,WNW,283,6.0,-999.0,71,-99.99,,,-99.99,,2013-09-23 17:12:00,
2013-09-23 13:24:00,54.0,44.0,30.06,WSW,249,7.0,-999.0,68,-99.99,,,-99.99,,2013-09-23 17:24:00,
2013-09-23 13:42:00,55.0,45.0,30.06,WSW,244,7.0,-999.0,68,-99.99,,,-99.99,,2013-09-23 17:42:00,
2013-09-23 13:52:00,56.0,44.0,30.05,SW,229,7.0,-999.0,64,-99.99,,,-99.99,,2013-09-23 17:52:00,
2013-09-23 14:13:00,56.0,44.0,30.04,WSW,248,8.0,-999.0,65,-99.99,,,-99.99,,2013-09-23 18:13:00,
2013-09-23 14:22:00,56.0,44.0,30.04,SW,223,9.0,-999.0,63,-99.99,,,-99.99,,2013-09-23 18:22:00,
2013-09-23 14:52:00,57.0,45.0,30.04,West,261,8.0,-999.0,63,-99.99,,,-99.99,,2013-09-23 18:52:00,
2013-09-23 15:12:00,57.0,44.0,30.04,North,351,7.0,-999.0,61,-99.99,,,-99.99,,2013-09-23 19:12:00,
2013-09-23 15:53:00,58.0,45.0,30.03,WSW,249,4.0,-999.0,62,-99.99,,,-99.99,,2013-09-23 19:53:00,
2013-09-23 16:12:00,58.0,47.0,30.03,NNW,337,6.0,-999.0,66,-99.99,,,-99.99,,2013-09-23 20:12:00,
2013-09-23 16:22:00,57.0,45.0,30.03,WSW,257,4.0,-999.0,64,-99.99,,,-99.99,,2013-09-23 20:22:00,
2013-09-23 16:52:00,57.0,47.0,30.04,WSW,251,4.0,-999.0,68,-99.99,,,-99.99,,2013-09-23 20:52:00,
2013-09-23 17:12:00,57.0,45.0,30.03,West,273,5.0,-999.0,65,-99.99,,,-99.99,,2013-09-23 21:12:00,
2013-09-23 17:23:00,57.0,46.0,30.04,NW,311,4.0,-999.0,66,-99.99,,,-99.99,,2013-09-23 21:23:00,
2013-09-23 17:44:00,55.0,45.0,30.04,WSW,247,5.0,-999.0,68,-99.99,,,-99.99,,2013-09-23 21:44:00,
2013-09-23 17:54:00,56.0,46.0,30.04,WSW,246,4.0,-999.0,68,-99.99,,,-99.99,,2013-09-23 21:54:00,
2013-09-23 18:13:00,55.0,45.0,30.04,WSW,246,6.0,-999.0,69,-99.99,,,-99.99,,2013-09-23 22:13:00,
2013-09-23 18:24:00,55.0,46.0,30.05,West,267,5.0,-999.0,71,-99.99,,,-99.99,,2013-09-23 22:24:00,
2013-09-23 18:54:00,54.0,46.0,30.05,SW,235,3.0,-999.0,73,-99.99,,,-99.99,,2013-09-23 22:54:00,
2013-09-23 19:12:00,52.0,45.0,30.05,WSW,256,4.0,-999.0,77,-99.99,,,-99.99,,2013-09-23 23:12:00,
2013-09-23 19:22:00,50.0,44.0,30.05,WSW,257,1.0,-999.0,81,-99.99,,,-99.99,,2013-09-23 23:22:00,
2013-09-23 19:54:00,49.0,44.0,30.05,WSW,257,0.0,-999.0,84,-99.99,,,-99.99,,2013-09-23 23:54:00,
2013-09-23 20:12:00,48.0,44.0,30.05,WSW,257,0.0,-999.0,86,-99.99,,,-99.99,,2013-09-24 00:12:00,
2013-09-23 20:22:00,48.0,43.0,30.05,WSW,257,2.0,-999.0,84,-99.99,,,-99.99,,2013-09-24 00:22:00,
2013-09-23 20:43:00,48.0,44.0,30.05,WSW,257,3.0,-999.0,85,-99.99,,,-99.99,,2013-09-24 00:43:00,
2013-09-23 20:52:00,48.0,44.0,30.05,WSW,257,2.0,-999.0,85,-99.99,,,-99.99,,2013-09-24 00:52:00,
2013-09-23 21:12:00,49.0,41.0,30.06,SSW,210,1.0,-999.0,73,-99.99,,,-99.99,,2013-09-24 01:12:00,
2013-09-23 21:22:00,50.0,42.0,30.05,South,182,3.0,-999.0,73,-99.99,,,-99.99,,2013-09-24 01:22:00,
2013-09-23 21:43:00,49.0,42.0,30.05,SSW,203,2.0,-999.0,76,-99.99,,,-99.99,,2013-09-24 01:43:00,
2013-09-23 21:52:00,50.0,44.0,30.05,South,179,3.0,-999.0,79,-99.99,,,-99.99,,2013-09-24 01:52:00,
2013-09-23 22:12:00,50.0,44.0,30.05,SSW,192,5.0,-999.0,80,-99.99,,,-99.99,,2013-09-24 02:12:00,
2013-09-23 22:23:00,50.0,44.0,30.06,South,178,4.0,-999.0,81,-99.99,,,-99.99,,2013-09-24 02:23:00,
2013-09-23 22:42:00,50.0,44.0,30.06,South,190,6.0,-999.0,81,-99.99,,,-99.99,,2013-09-24 02:42:00,
2013-09-23 22:52:00,50.0,44.0,30.06,South,173,5.0,-999.0,80,-99.99,,,-99.99,,2013-09-24 02:52:00,
2013-09-23 23:12:00,50.0,44.0,30.06,SSW,198,2.0,-999.0,80,-99.99,,,-99.99,,2013-09-24 03:12:00,
2013-09-23 23:22:00,49.0,44.0,30.06,SE,144,0.0,-999.0,82,-99.99,,,-99.99,,2013-09-24 03:22:00,
2013-09-23 23:55:00,49.0,44.0,30.06,SSE,167,4.0,-999.0,84,-99.99,,,-99.99,,2013-09-24 03:55:00,